Year,Month,Day,Hour,Minute,Value (Times are PST for windgust in km/hr)
2017,01,10,00,00,6.40
2017,01,10,00,06,6.40
2017,01,10,00,09,1.60
2017,01,10,00,10,4.80
2017,01,10,00,12,1.60
2017,01,10,00,14,4.80
2017,01,10,00,15,9.60
2017,01,10,00,16,3.20
2017,01,10,00,19,1.60
2017,01,10,00,25,4.80
2017,01,10,00,26,4.80
2017,01,10,00,27,6.40
2017,01,10,00,28,3.20
2017,01,10,00,30,6.40
2017,01,10,00,31,6.40
2017,01,10,00,32,8.10
2017,01,10,00,33,8.10
2017,01,10,00,34,6.40
2017,01,10,00,35,4.80
2017,01,10,00,36,6.40
2017,01,10,00,37,6.40
2017,01,10,00,38,4.80
2017,01,10,00,39,4.80
2017,01,10,00,40,4.80
2017,01,10,00,43,4.80
2017,01,10,00,44,3.20
2017,01,10,00,45,6.40
2017,01,10,00,46,6.40
2017,01,10,00,47,9.60
2017,01,10,00,48,3.20
2017,01,10,00,49,9.60
2017,01,10,00,50,3.20
2017,01,10,00,51,8.10
2017,01,10,00,52,8.10
2017,01,10,00,53,11.30
2017,01,10,00,54,17.70
2017,01,10,00,55,4.80
2017,01,10,00,56,9.60
2017,01,10,00,57,14.50
2017,01,10,00,58,8.10
2017,01,10,00,59,16.10
2017,01,10,01,00,9.60
2017,01,10,01,01,9.60
2017,01,10,01,02,9.60
2017,01,10,01,03,9.60
2017,01,10,01,04,8.10
2017,01,10,01,05,11.30
2017,01,10,01,06,4.80
2017,01,10,01,07,6.40
2017,01,10,01,08,8.10
2017,01,10,01,09,17.70
2017,01,10,01,10,9.60
2017,01,10,01,11,14.50
2017,01,10,01,12,6.40
2017,01,10,01,13,6.40
2017,01,10,01,14,11.30
2017,01,10,01,15,9.60
2017,01,10,01,16,11.30
2017,01,10,01,17,6.40
2017,01,10,01,18,17.70
2017,01,10,01,19,14.50
2017,01,10,01,20,3.20
2017,01,10,01,21,17.70
2017,01,10,01,22,9.60
2017,01,10,01,23,9.60
2017,01,10,01,24,9.60
2017,01,10,01,25,14.50
2017,01,10,01,26,6.40
2017,01,10,01,27,11.30
2017,01,10,01,28,8.10
2017,01,10,01,29,11.30
2017,01,10,01,30,8.10
2017,01,10,01,31,8.10
2017,01,10,01,32,14.50
2017,01,10,01,33,14.50
2017,01,10,01,34,14.50
2017,01,10,01,35,9.60
2017,01,10,01,36,4.80
2017,01,10,01,37,6.40
2017,01,10,01,38,9.60
2017,01,10,01,39,11.30
2017,01,10,01,40,11.30
2017,01,10,01,41,8.10
2017,01,10,01,42,17.70
2017,01,10,01,43,9.60
2017,01,10,01,44,8.10
2017,01,10,01,45,9.60
2017,01,10,01,46,17.70
2017,01,10,01,47,11.30
2017,01,10,01,48,17.70
2017,01,10,01,49,16.10
2017,01,10,01,50,11.30
2017,01,10,01,51,11.30
2017,01,10,01,52,8.10
2017,01,10,01,53,9.60
2017,01,10,01,54,9.60
2017,01,10,01,55,16.10
2017,01,10,01,56,11.30
2017,01,10,01,57,9.60
2017,01,10,01,58,17.70
2017,01,10,01,59,11.30
2017,01,10,02,00,11.30
2017,01,10,02,01,11.30
2017,01,10,02,02,16.10
2017,01,10,02,03,14.50
2017,01,10,02,04,6.40
2017,01,10,02,05,17.70
2017,01,10,02,06,14.50
2017,01,10,02,07,8.10
2017,01,10,02,08,20.90
2017,01,10,02,09,20.90
2017,01,10,02,10,11.30
2017,01,10,02,11,22.50
2017,01,10,02,12,17.70
2017,01,10,02,13,16.10
2017,01,10,02,14,16.10
2017,01,10,02,15,20.90
2017,01,10,02,16,20.90
2017,01,10,02,17,20.90
2017,01,10,02,18,11.30
2017,01,10,02,19,17.70
2017,01,10,02,20,16.10
2017,01,10,02,21,20.90
2017,01,10,02,22,14.50
2017,01,10,02,23,11.30
2017,01,10,02,24,14.50
2017,01,10,02,25,17.70
2017,01,10,02,26,16.10
2017,01,10,02,27,14.50
2017,01,10,02,28,29.00
2017,01,10,02,29,24.20
2017,01,10,02,30,20.90
2017,01,10,02,31,19.30
2017,01,10,02,32,16.10
2017,01,10,02,33,22.50
2017,01,10,02,34,22.50
2017,01,10,02,35,20.90
2017,01,10,02,36,11.30
2017,01,10,02,37,16.10
2017,01,10,02,38,17.70
2017,01,10,02,39,17.70
2017,01,10,02,40,17.70
2017,01,10,02,41,24.20
2017,01,10,02,42,22.50
2017,01,10,02,43,16.10
2017,01,10,02,44,14.50
2017,01,10,02,45,17.70
2017,01,10,02,46,19.30
2017,01,10,02,47,24.20
2017,01,10,02,48,20.90
2017,01,10,02,49,16.10
2017,01,10,02,50,16.10
2017,01,10,02,51,24.20
2017,01,10,02,52,24.20
2017,01,10,02,53,16.10
2017,01,10,02,54,24.20
2017,01,10,02,55,19.30
2017,01,10,02,56,19.30
2017,01,10,02,57,17.70
2017,01,10,02,58,17.70
2017,01,10,02,59,11.30
2017,01,10,03,00,19.30
2017,01,10,03,01,20.90
2017,01,10,03,02,14.50
2017,01,10,03,03,24.20
2017,01,10,03,04,14.50
2017,01,10,03,05,20.90
2017,01,10,03,06,19.30
2017,01,10,03,07,20.90
2017,01,10,03,08,11.30
2017,01,10,03,09,11.30
2017,01,10,03,10,11.30
2017,01,10,03,11,6.40
2017,01,10,03,12,9.60
2017,01,10,03,13,20.90
2017,01,10,03,14,11.30
2017,01,10,03,15,17.70
2017,01,10,03,16,17.70
2017,01,10,03,17,16.10
2017,01,10,03,18,22.50
2017,01,10,03,19,17.70
2017,01,10,03,20,22.50
2017,01,10,03,21,17.70
2017,01,10,03,22,14.50
2017,01,10,03,23,16.10
2017,01,10,03,24,16.10
2017,01,10,03,25,19.30
2017,01,10,03,26,17.70
2017,01,10,03,27,20.90
2017,01,10,03,28,24.20
2017,01,10,03,29,19.30
2017,01,10,03,30,11.30
2017,01,10,03,31,9.60
2017,01,10,03,32,8.10
2017,01,10,03,33,14.50
2017,01,10,03,34,16.10
2017,01,10,03,35,16.10
2017,01,10,03,36,14.50
2017,01,10,03,37,19.30
2017,01,10,03,38,16.10
2017,01,10,03,39,19.30
2017,01,10,03,40,17.70
2017,01,10,03,41,12.90
2017,01,10,03,42,14.50
2017,01,10,03,43,16.10
2017,01,10,03,44,11.30
2017,01,10,03,45,11.30
2017,01,10,03,46,20.90
2017,01,10,03,47,11.30
2017,01,10,03,48,17.70
2017,01,10,03,49,17.70
2017,01,10,03,50,9.60
2017,01,10,03,51,11.30
2017,01,10,03,52,20.90
2017,01,10,03,53,9.60
2017,01,10,03,54,17.70
2017,01,10,03,55,19.30
2017,01,10,03,56,24.20
2017,01,10,03,57,17.70
2017,01,10,03,58,11.30
2017,01,10,03,59,20.90
2017,01,10,04,00,17.70
2017,01,10,04,01,20.90
2017,01,10,04,02,19.30
2017,01,10,04,03,11.30
2017,01,10,04,04,9.60
2017,01,10,04,05,8.10
2017,01,10,04,06,11.30
2017,01,10,04,07,16.10
2017,01,10,04,08,20.90
2017,01,10,04,09,9.60
2017,01,10,04,10,17.70
2017,01,10,04,11,16.10
2017,01,10,04,12,17.70
2017,01,10,04,13,22.50
2017,01,10,04,14,14.50
2017,01,10,04,15,14.50
2017,01,10,04,16,17.70
2017,01,10,04,17,12.90
2017,01,10,04,18,6.40
2017,01,10,04,19,14.50
2017,01,10,04,20,16.10
2017,01,10,04,21,16.10
2017,01,10,04,22,9.60
2017,01,10,04,23,14.50
2017,01,10,04,24,16.10
2017,01,10,04,25,11.30
2017,01,10,04,26,19.30
2017,01,10,04,27,20.90
2017,01,10,04,28,16.10
2017,01,10,04,29,22.50
2017,01,10,04,30,19.30
2017,01,10,04,31,12.90
2017,01,10,04,32,9.60
2017,01,10,04,33,16.10
2017,01,10,04,34,19.30
2017,01,10,04,35,9.60
2017,01,10,04,36,14.50
2017,01,10,04,37,17.70
2017,01,10,04,38,20.90
2017,01,10,04,39,14.50
2017,01,10,04,40,14.50
2017,01,10,04,41,16.10
2017,01,10,04,42,14.50
2017,01,10,04,43,16.10
2017,01,10,04,44,20.90
2017,01,10,04,45,19.30
2017,01,10,04,46,11.30
2017,01,10,04,47,14.50
2017,01,10,04,48,22.50
2017,01,10,04,49,12.90
2017,01,10,04,50,19.30
2017,01,10,04,51,17.70
2017,01,10,04,52,22.50
2017,01,10,04,53,20.90
2017,01,10,04,54,20.90
2017,01,10,04,55,19.30
2017,01,10,04,56,16.10
2017,01,10,04,57,14.50
2017,01,10,04,58,19.30
2017,01,10,04,59,17.70
2017,01,10,05,00,17.70
2017,01,10,05,01,11.30
2017,01,10,05,02,11.30
2017,01,10,05,03,22.50
2017,01,10,05,04,16.10
2017,01,10,05,05,9.60
2017,01,10,05,06,14.50
2017,01,10,05,07,14.50
2017,01,10,05,08,17.70
2017,01,10,05,09,9.60
2017,01,10,05,10,16.10
2017,01,10,05,11,17.70
2017,01,10,05,12,14.50
2017,01,10,05,13,17.70
2017,01,10,05,14,16.10
2017,01,10,05,15,16.10
2017,01,10,05,16,22.50
2017,01,10,05,17,20.90
2017,01,10,05,18,9.60
2017,01,10,05,19,11.30
2017,01,10,05,20,17.70
2017,01,10,05,21,22.50
2017,01,10,05,22,19.30
2017,01,10,05,23,19.30
2017,01,10,05,24,9.60
2017,01,10,05,25,14.50
2017,01,10,05,26,16.10
2017,01,10,05,27,20.90
2017,01,10,05,28,20.90
2017,01,10,05,29,19.30
2017,01,10,05,30,9.60
2017,01,10,05,31,9.60
2017,01,10,05,32,17.70
2017,01,10,05,33,19.30
2017,01,10,05,34,11.30
2017,01,10,05,35,14.50
2017,01,10,05,36,19.30
2017,01,10,05,37,11.30
2017,01,10,05,38,20.90
2017,01,10,05,39,25.70
2017,01,10,05,40,22.50
2017,01,10,05,41,17.70
2017,01,10,05,42,24.20
2017,01,10,05,43,22.50
2017,01,10,05,44,20.90
2017,01,10,05,45,29.00
2017,01,10,05,46,11.30
2017,01,10,05,47,16.10
2017,01,10,05,48,20.90
2017,01,10,05,49,20.90
2017,01,10,05,50,30.60
2017,01,10,05,51,29.00
2017,01,10,05,52,24.20
2017,01,10,05,53,19.30
2017,01,10,05,54,11.30
2017,01,10,05,55,17.70
2017,01,10,05,56,19.30
2017,01,10,05,57,16.10
2017,01,10,05,58,20.90
2017,01,10,05,59,33.80
2017,01,10,06,00,27.40
2017,01,10,06,01,17.70
2017,01,10,06,02,16.10
2017,01,10,06,03,20.90
2017,01,10,06,04,9.60
2017,01,10,06,05,17.70
2017,01,10,06,06,16.10
2017,01,10,06,07,17.70
2017,01,10,06,08,19.30
2017,01,10,06,09,20.90
2017,01,10,06,10,20.90
2017,01,10,06,11,14.50
2017,01,10,06,12,22.50
2017,01,10,06,13,22.50
2017,01,10,06,14,17.70
2017,01,10,06,15,8.10
2017,01,10,06,16,6.40
2017,01,10,06,17,19.30
2017,01,10,06,18,14.50
2017,01,10,06,19,29.00
2017,01,10,06,20,32.20
2017,01,10,06,21,12.90
2017,01,10,06,22,24.20
2017,01,10,06,23,33.80
2017,01,10,06,24,24.20
2017,01,10,06,25,16.10
2017,01,10,06,26,25.70
2017,01,10,06,27,35.40
2017,01,10,06,28,17.70
2017,01,10,06,29,22.50
2017,01,10,06,30,17.70
2017,01,10,06,31,16.10
2017,01,10,06,32,11.30
2017,01,10,06,33,20.90
2017,01,10,06,34,16.10
2017,01,10,06,35,11.30
2017,01,10,06,36,16.10
2017,01,10,06,37,16.10
2017,01,10,06,38,16.10
2017,01,10,06,39,20.90
2017,01,10,06,40,17.70
2017,01,10,06,41,24.20
2017,01,10,06,42,8.10
2017,01,10,06,43,6.40
2017,01,10,06,44,19.30
2017,01,10,06,45,9.60
2017,01,10,06,46,16.10
2017,01,10,06,47,16.10
2017,01,10,06,48,11.30
2017,01,10,06,49,19.30
2017,01,10,06,50,9.60
2017,01,10,06,51,6.40
2017,01,10,06,52,29.00
2017,01,10,06,53,17.70
2017,01,10,06,54,20.90
2017,01,10,06,55,22.50
2017,01,10,06,56,14.50
2017,01,10,06,57,14.50
2017,01,10,06,58,19.30
2017,01,10,06,59,30.60
2017,01,10,07,00,24.20
2017,01,10,07,01,24.20
2017,01,10,07,02,20.90
2017,01,10,07,03,17.70
2017,01,10,07,04,11.30
2017,01,10,07,05,6.40
2017,01,10,07,06,9.60
2017,01,10,07,07,8.10
2017,01,10,07,08,4.80
2017,01,10,07,09,6.40
2017,01,10,07,10,9.60
2017,01,10,07,11,11.30
2017,01,10,07,12,3.20
2017,01,10,07,13,11.30
2017,01,10,07,14,12.90
2017,01,10,07,15,14.50
2017,01,10,07,16,16.10
2017,01,10,07,17,16.10
2017,01,10,07,18,6.40
2017,01,10,07,19,12.90
2017,01,10,07,20,11.30
2017,01,10,07,21,11.30
2017,01,10,07,22,9.60
2017,01,10,07,23,11.30
2017,01,10,07,24,6.40
2017,01,10,07,25,6.40
2017,01,10,07,26,16.10
2017,01,10,07,27,11.30
2017,01,10,07,28,9.60
2017,01,10,07,29,8.10
2017,01,10,07,30,8.10
2017,01,10,07,31,27.40
2017,01,10,07,32,19.30
2017,01,10,07,33,14.50
2017,01,10,07,34,14.50
2017,01,10,07,35,22.50
2017,01,10,07,36,22.50
2017,01,10,07,37,17.70
2017,01,10,07,38,11.30
2017,01,10,07,39,22.50
2017,01,10,07,40,25.70
2017,01,10,07,41,20.90
2017,01,10,07,42,19.30
2017,01,10,07,43,20.90
2017,01,10,07,44,16.10
2017,01,10,07,45,17.70
2017,01,10,07,46,14.50
2017,01,10,07,47,19.30
2017,01,10,07,48,17.70
2017,01,10,07,49,19.30
2017,01,10,07,50,11.30
2017,01,10,07,51,6.40
2017,01,10,07,52,11.30
2017,01,10,07,53,24.20
2017,01,10,07,54,27.40
2017,01,10,07,55,22.50
2017,01,10,07,56,14.50
2017,01,10,07,57,4.80
2017,01,10,07,58,24.20
2017,01,10,07,59,24.20
2017,01,10,08,00,17.70
2017,01,10,08,01,17.70
2017,01,10,08,02,24.20
2017,01,10,08,03,20.90
2017,01,10,08,04,9.60
2017,01,10,08,05,8.10
2017,01,10,08,06,12.90
2017,01,10,08,07,9.60
2017,01,10,08,08,8.10
2017,01,10,08,09,19.30
2017,01,10,08,10,19.30
2017,01,10,08,11,14.50
2017,01,10,08,12,16.10
2017,01,10,08,13,9.60
2017,01,10,08,14,19.30
2017,01,10,08,15,25.70
2017,01,10,08,16,12.90
2017,01,10,08,17,12.90
2017,01,10,08,18,19.30
2017,01,10,08,19,17.70
2017,01,10,08,20,11.30
2017,01,10,08,21,16.10
2017,01,10,08,22,16.10
2017,01,10,08,23,9.60
2017,01,10,08,24,22.50
2017,01,10,08,25,16.10
2017,01,10,08,26,8.10
2017,01,10,08,27,9.60
2017,01,10,08,28,17.70
2017,01,10,08,29,4.80
2017,01,10,08,30,17.70
2017,01,10,08,31,9.60
2017,01,10,08,32,20.90
2017,01,10,08,33,20.90
2017,01,10,08,34,11.30
2017,01,10,08,35,8.10
2017,01,10,08,36,8.10
2017,01,10,08,37,11.30
2017,01,10,08,38,16.10
2017,01,10,08,39,25.70
2017,01,10,08,40,22.50
2017,01,10,08,41,25.70
2017,01,10,08,42,22.50
2017,01,10,08,43,14.50
2017,01,10,08,44,11.30
2017,01,10,08,45,9.60
2017,01,10,08,46,8.10
2017,01,10,08,47,16.10
2017,01,10,08,48,22.50
2017,01,10,08,49,14.50
2017,01,10,08,50,12.90
2017,01,10,08,51,20.90
2017,01,10,08,52,12.90
2017,01,10,08,53,19.30
2017,01,10,08,54,24.20
2017,01,10,08,55,22.50
2017,01,10,08,56,17.70
2017,01,10,08,57,27.40
2017,01,10,08,58,24.20
2017,01,10,08,59,17.70
2017,01,10,09,00,24.20
2017,01,10,09,01,22.50
2017,01,10,09,02,27.40
2017,01,10,09,03,24.20
2017,01,10,09,04,19.30
2017,01,10,09,05,24.20
2017,01,10,09,06,25.70
2017,01,10,09,07,19.30
2017,01,10,09,08,27.40
2017,01,10,09,09,20.90
2017,01,10,09,10,16.10
2017,01,10,09,11,9.60
2017,01,10,09,12,29.00
2017,01,10,09,13,14.50
2017,01,10,09,14,14.50
2017,01,10,09,15,14.50
2017,01,10,09,16,20.90
2017,01,10,09,17,14.50
2017,01,10,09,18,8.10
2017,01,10,09,19,6.40
2017,01,10,09,20,22.50
2017,01,10,09,21,20.90
2017,01,10,09,22,20.90
2017,01,10,09,23,24.20
2017,01,10,09,24,19.30
2017,01,10,09,25,6.40
2017,01,10,09,26,12.90
2017,01,10,09,27,9.60
2017,01,10,09,28,14.50
2017,01,10,09,29,9.60
2017,01,10,09,30,11.30
2017,01,10,09,31,9.60
2017,01,10,09,32,11.30
2017,01,10,09,33,11.30
2017,01,10,09,34,16.10
2017,01,10,09,35,16.10
2017,01,10,09,36,9.60
2017,01,10,09,37,14.50
2017,01,10,09,38,14.50
2017,01,10,09,39,16.10
2017,01,10,09,40,16.10
2017,01,10,09,41,11.30
2017,01,10,09,42,6.40
2017,01,10,09,43,6.40
2017,01,10,09,44,11.30
2017,01,10,09,45,17.70
2017,01,10,09,46,9.60
2017,01,10,09,47,16.10
2017,01,10,09,48,20.90
2017,01,10,09,49,20.90
2017,01,10,09,50,25.70
2017,01,10,09,51,17.70
2017,01,10,09,52,19.30
2017,01,10,09,53,19.30
2017,01,10,09,54,14.50
2017,01,10,09,55,9.60
2017,01,10,09,56,11.30
2017,01,10,09,57,14.50
2017,01,10,09,58,17.70
2017,01,10,09,59,14.50
2017,01,10,10,00,17.70
2017,01,10,10,01,11.30
2017,01,10,10,02,11.30
2017,01,10,10,03,22.50
2017,01,10,10,04,16.10
2017,01,10,10,05,9.60
2017,01,10,10,06,17.70
2017,01,10,10,07,19.30
2017,01,10,10,08,16.10
2017,01,10,10,09,22.50
2017,01,10,10,10,22.50
2017,01,10,10,11,19.30
2017,01,10,10,12,17.70
2017,01,10,10,13,22.50
2017,01,10,10,14,19.30
2017,01,10,10,15,20.90
2017,01,10,10,16,17.70
2017,01,10,10,17,14.50
2017,01,10,10,18,30.60
2017,01,10,10,19,19.30
2017,01,10,10,20,38.60
2017,01,10,10,21,33.80
2017,01,10,10,22,22.50
2017,01,10,10,23,27.40
2017,01,10,10,24,32.20
2017,01,10,10,25,27.40
2017,01,10,10,26,17.70
2017,01,10,10,27,22.50
2017,01,10,10,28,30.60
2017,01,10,10,29,29.00
2017,01,10,10,30,24.20
2017,01,10,10,31,27.40
2017,01,10,10,32,25.70
2017,01,10,10,33,16.10
2017,01,10,10,34,29.00
2017,01,10,10,35,17.70
2017,01,10,10,36,22.50
2017,01,10,10,37,25.70
2017,01,10,10,38,27.40
2017,01,10,10,39,32.20
2017,01,10,10,40,22.50
2017,01,10,10,41,17.70
2017,01,10,10,42,24.20
2017,01,10,10,43,30.60
2017,01,10,10,44,25.70
2017,01,10,10,45,24.20
2017,01,10,10,46,19.30
2017,01,10,10,47,17.70
2017,01,10,10,48,17.70
2017,01,10,10,49,33.80
2017,01,10,10,50,25.70
2017,01,10,10,51,35.40
2017,01,10,10,52,27.40
2017,01,10,10,53,24.20
2017,01,10,10,54,33.80
2017,01,10,10,55,22.50
2017,01,10,10,56,32.20
2017,01,10,10,57,25.70
2017,01,10,10,58,25.70
2017,01,10,10,59,19.30
2017,01,10,11,00,29.00
2017,01,10,11,01,16.10
2017,01,10,11,02,20.90
2017,01,10,11,03,19.30
2017,01,10,11,04,22.50
2017,01,10,11,05,19.30
2017,01,10,11,06,22.50
2017,01,10,11,07,12.90
2017,01,10,11,08,17.70
2017,01,10,11,09,27.40
2017,01,10,11,10,20.90
2017,01,10,11,11,20.90
2017,01,10,11,12,14.50
2017,01,10,11,13,22.50
2017,01,10,11,14,20.90
2017,01,10,11,15,24.20
2017,01,10,11,16,25.70
2017,01,10,11,17,32.20
2017,01,10,11,18,30.60
2017,01,10,11,19,24.20
2017,01,10,11,20,19.30
2017,01,10,11,21,24.20
2017,01,10,11,22,25.70
2017,01,10,11,23,22.50
2017,01,10,11,24,24.20
2017,01,10,11,25,33.80
2017,01,10,11,26,33.80
2017,01,10,11,27,20.90
2017,01,10,11,28,22.50
2017,01,10,11,29,20.90
2017,01,10,11,30,16.10
2017,01,10,11,31,17.70
2017,01,10,11,32,24.20
2017,01,10,11,33,30.60
2017,01,10,11,34,20.90
2017,01,10,11,35,30.60
2017,01,10,11,36,17.70
2017,01,10,11,37,24.20
2017,01,10,11,38,25.70
2017,01,10,11,39,24.20
2017,01,10,11,40,40.20
2017,01,10,11,41,27.40
2017,01,10,11,42,25.70
2017,01,10,11,43,29.00
2017,01,10,11,44,27.40
2017,01,10,11,45,32.20
2017,01,10,11,46,35.40
2017,01,10,11,47,38.60
2017,01,10,11,48,35.40
2017,01,10,11,49,29.00
2017,01,10,11,50,24.20
2017,01,10,11,51,17.70
2017,01,10,11,52,19.30
2017,01,10,11,53,38.60
2017,01,10,11,54,29.00
2017,01,10,11,55,35.40
2017,01,10,11,56,22.50
2017,01,10,11,57,20.90
2017,01,10,11,58,24.20
2017,01,10,11,59,24.20
2017,01,10,12,00,22.50
2017,01,10,12,01,19.30
2017,01,10,12,02,11.30
2017,01,10,12,03,11.30
2017,01,10,12,04,19.30
2017,01,10,12,05,20.90
2017,01,10,12,06,20.90
2017,01,10,12,07,19.30
2017,01,10,12,08,19.30
2017,01,10,12,09,35.40
2017,01,10,12,10,12.90
2017,01,10,12,11,19.30
2017,01,10,12,12,20.90
2017,01,10,12,13,24.20
2017,01,10,12,14,25.70
2017,01,10,12,15,19.30
2017,01,10,12,16,22.50
2017,01,10,12,17,19.30
2017,01,10,12,18,30.60
2017,01,10,12,19,33.80
2017,01,10,12,20,24.20
2017,01,10,12,21,27.40
2017,01,10,12,22,17.70
2017,01,10,12,23,19.30
2017,01,10,12,24,38.60
2017,01,10,12,25,27.40
2017,01,10,12,26,27.40
2017,01,10,12,27,25.70
2017,01,10,12,28,35.40
2017,01,10,12,29,19.30
2017,01,10,12,30,16.10
2017,01,10,12,31,24.20
2017,01,10,12,32,27.40
2017,01,10,12,33,24.20
2017,01,10,12,34,22.50
2017,01,10,12,35,17.70
2017,01,10,12,36,16.10
2017,01,10,12,37,11.30
2017,01,10,12,38,9.60
2017,01,10,12,39,14.50
2017,01,10,12,40,14.50
2017,01,10,12,41,24.20
2017,01,10,12,42,12.90
2017,01,10,12,43,25.70
2017,01,10,12,44,25.70
2017,01,10,12,45,20.90
2017,01,10,12,46,30.60
2017,01,10,12,47,30.60
2017,01,10,12,48,14.50
2017,01,10,12,49,22.50
2017,01,10,12,50,20.90
2017,01,10,12,51,20.90
2017,01,10,12,52,20.90
2017,01,10,12,53,25.70
2017,01,10,12,54,17.70
2017,01,10,12,55,11.30
2017,01,10,12,56,9.60
2017,01,10,12,57,20.90
2017,01,10,12,58,25.70
2017,01,10,12,59,20.90
2017,01,10,13,00,30.60
2017,01,10,13,01,24.20
2017,01,10,13,02,33.80
2017,01,10,13,03,24.20
2017,01,10,13,04,24.20
2017,01,10,13,05,16.10
2017,01,10,13,06,30.60
2017,01,10,13,07,29.00
2017,01,10,13,08,17.70
2017,01,10,13,09,9.60
2017,01,10,13,10,17.70
2017,01,10,13,11,22.50
2017,01,10,13,12,29.00
2017,01,10,13,13,19.30
2017,01,10,13,14,17.70
2017,01,10,13,15,29.00
2017,01,10,13,16,25.70
2017,01,10,13,17,24.20
2017,01,10,13,18,25.70
2017,01,10,13,19,19.30
2017,01,10,13,20,20.90
2017,01,10,13,21,25.70
2017,01,10,13,22,22.50
2017,01,10,13,23,16.10
2017,01,10,13,24,16.10
2017,01,10,13,25,14.50
2017,01,10,13,26,20.90
2017,01,10,13,27,32.20
2017,01,10,13,28,29.00
2017,01,10,13,29,17.70
2017,01,10,13,30,20.90
2017,01,10,13,31,14.50
2017,01,10,13,32,22.50
2017,01,10,13,33,35.40
2017,01,10,13,34,40.20
2017,01,10,13,35,29.00
2017,01,10,13,36,29.00
2017,01,10,13,37,30.60
2017,01,10,13,38,9.60
2017,01,10,13,39,11.30
2017,01,10,13,40,14.50
2017,01,10,13,41,22.50
2017,01,10,13,42,25.70
2017,01,10,13,43,29.00
2017,01,10,13,44,33.80
2017,01,10,13,45,32.20
2017,01,10,13,46,22.50
2017,01,10,13,47,22.50
2017,01,10,13,48,27.40
2017,01,10,13,49,24.20
2017,01,10,13,50,29.00
2017,01,10,13,51,27.40
2017,01,10,13,52,32.20
2017,01,10,13,53,25.70
2017,01,10,13,54,38.60
2017,01,10,13,55,30.60
2017,01,10,13,56,27.40
2017,01,10,13,57,33.80
2017,01,10,13,58,9.60
2017,01,10,13,59,22.50
2017,01,10,14,00,38.60
2017,01,10,14,01,22.50
2017,01,10,14,02,37.00
2017,01,10,14,03,38.60
2017,01,10,14,04,30.60
2017,01,10,14,05,29.00
2017,01,10,14,06,25.70
2017,01,10,14,07,22.50
2017,01,10,14,08,27.40
2017,01,10,14,09,30.60
2017,01,10,14,10,24.20
2017,01,10,14,11,19.30
2017,01,10,14,12,16.10
2017,01,10,14,13,25.70
2017,01,10,14,14,33.80
2017,01,10,14,15,25.70
2017,01,10,14,16,19.30
2017,01,10,14,17,27.40
2017,01,10,14,18,24.20
2017,01,10,14,19,20.90
2017,01,10,14,20,19.30
2017,01,10,14,21,25.70
2017,01,10,14,22,24.20
2017,01,10,14,23,29.00
2017,01,10,14,24,29.00
2017,01,10,14,25,20.90
2017,01,10,14,26,33.80
2017,01,10,14,27,33.80
2017,01,10,14,28,29.00
2017,01,10,14,29,19.30
2017,01,10,14,30,24.20
2017,01,10,14,31,22.50
2017,01,10,14,32,24.20
2017,01,10,14,33,25.70
2017,01,10,14,34,24.20
2017,01,10,14,35,16.10
2017,01,10,14,36,25.70
2017,01,10,14,37,17.70
2017,01,10,14,38,25.70
2017,01,10,14,39,35.40
2017,01,10,14,40,27.40
2017,01,10,14,41,25.70
2017,01,10,14,42,17.70
2017,01,10,14,43,24.20
2017,01,10,14,44,29.00
2017,01,10,14,45,27.40
2017,01,10,14,46,20.90
2017,01,10,14,47,20.90
2017,01,10,14,48,22.50
2017,01,10,14,49,27.40
2017,01,10,14,50,22.50
2017,01,10,14,51,25.70
2017,01,10,14,52,25.70
2017,01,10,14,53,32.20
2017,01,10,14,54,29.00
2017,01,10,14,55,17.70
2017,01,10,14,56,17.70
2017,01,10,14,57,32.20
2017,01,10,14,58,33.80
2017,01,10,14,59,14.50
2017,01,10,15,00,20.90
2017,01,10,15,01,29.00
2017,01,10,15,02,16.10
2017,01,10,15,03,27.40
2017,01,10,15,04,25.70
2017,01,10,15,05,27.40
2017,01,10,15,06,30.60
2017,01,10,15,07,30.60
2017,01,10,15,08,25.70
2017,01,10,15,09,20.90
2017,01,10,15,10,25.70
2017,01,10,15,11,16.10
2017,01,10,15,12,17.70
2017,01,10,15,13,29.00
2017,01,10,15,14,41.80
2017,01,10,15,15,27.40
2017,01,10,15,16,32.20
2017,01,10,15,17,17.70
2017,01,10,15,18,30.60
2017,01,10,15,19,20.90
2017,01,10,15,20,25.70
2017,01,10,15,21,25.70
2017,01,10,15,22,25.70
2017,01,10,15,23,22.50
2017,01,10,15,24,24.20
2017,01,10,15,25,29.00
2017,01,10,15,26,29.00
2017,01,10,15,27,16.10
2017,01,10,15,28,12.90
2017,01,10,15,29,32.20
2017,01,10,15,30,22.50
2017,01,10,15,31,19.30
2017,01,10,15,32,27.40
2017,01,10,15,33,22.50
2017,01,10,15,34,16.10
2017,01,10,15,35,22.50
2017,01,10,15,36,16.10
2017,01,10,15,37,22.50
2017,01,10,15,38,22.50
2017,01,10,15,39,22.50
2017,01,10,15,40,11.30
2017,01,10,15,41,14.50
2017,01,10,15,42,27.40
2017,01,10,15,43,19.30
2017,01,10,15,44,16.10
2017,01,10,15,45,22.50
2017,01,10,15,46,25.70
2017,01,10,15,47,24.20
2017,01,10,15,48,20.90
2017,01,10,15,49,16.10
2017,01,10,15,50,14.50
2017,01,10,15,51,3.20
2017,01,10,15,52,9.60
2017,01,10,15,53,4.80
2017,01,10,15,54,8.10
2017,01,10,15,55,8.10
2017,01,10,15,56,6.40
2017,01,10,15,57,11.30
2017,01,10,15,58,9.60
2017,01,10,15,59,14.50
2017,01,10,16,00,12.90
2017,01,10,16,01,8.10
2017,01,10,16,02,11.30
2017,01,10,16,03,9.60
2017,01,10,16,04,16.10
2017,01,10,16,05,8.10
2017,01,10,16,06,16.10
2017,01,10,16,07,6.40
2017,01,10,16,08,6.40
2017,01,10,16,09,8.10
2017,01,10,16,10,9.60
2017,01,10,16,11,9.60
2017,01,10,16,12,9.60
2017,01,10,16,13,9.60
2017,01,10,16,14,9.60
2017,01,10,16,15,4.80
2017,01,10,16,16,1.60
2017,01,10,16,18,9.60
2017,01,10,16,19,9.60
2017,01,10,16,20,9.60
2017,01,10,16,21,14.50
2017,01,10,16,22,20.90
2017,01,10,16,23,14.50
2017,01,10,16,24,16.10
2017,01,10,16,25,11.30
2017,01,10,16,26,4.80
2017,01,10,16,27,8.10
2017,01,10,16,28,16.10
2017,01,10,16,29,24.20
2017,01,10,16,30,17.70
2017,01,10,16,31,17.70
2017,01,10,16,32,16.10
2017,01,10,16,33,22.50
2017,01,10,16,34,20.90
2017,01,10,16,35,25.70
2017,01,10,16,36,22.50
2017,01,10,16,37,25.70
2017,01,10,16,38,14.50
2017,01,10,16,39,22.50
2017,01,10,16,40,22.50
2017,01,10,16,41,17.70
2017,01,10,16,42,29.00
2017,01,10,16,43,16.10
2017,01,10,16,44,20.90
2017,01,10,16,45,20.90
2017,01,10,16,46,16.10
2017,01,10,16,47,16.10
2017,01,10,16,48,16.10
2017,01,10,16,49,14.50
2017,01,10,16,50,22.50
2017,01,10,16,51,17.70
2017,01,10,16,52,6.40
2017,01,10,16,53,8.10
2017,01,10,16,54,4.80
2017,01,10,16,55,9.60
2017,01,10,16,56,9.60
2017,01,10,16,57,8.10
2017,01,10,16,58,17.70
2017,01,10,16,59,20.90
2017,01,10,17,00,20.90
2017,01,10,17,01,22.50
2017,01,10,17,02,24.20
2017,01,10,17,03,20.90
2017,01,10,17,04,20.90
2017,01,10,17,05,20.90
2017,01,10,17,06,16.10
2017,01,10,17,07,4.80
2017,01,10,17,08,24.20
2017,01,10,17,09,17.70
2017,01,10,17,10,9.60
2017,01,10,17,11,9.60
2017,01,10,17,12,8.10
2017,01,10,17,13,8.10
2017,01,10,17,15,6.40
2017,01,10,17,16,11.30
2017,01,10,17,17,9.60
2017,01,10,17,18,16.10
2017,01,10,17,19,9.60
2017,01,10,17,20,6.40
2017,01,10,17,21,11.30
2017,01,10,17,22,17.70
2017,01,10,17,23,20.90
2017,01,10,17,24,6.40
2017,01,10,17,25,14.50
2017,01,10,17,26,6.40
2017,01,10,17,27,6.40
2017,01,10,17,28,22.50
2017,01,10,17,29,22.50
2017,01,10,17,30,11.30
2017,01,10,17,31,11.30
2017,01,10,17,32,8.10
2017,01,10,17,33,14.50
2017,01,10,17,34,16.10
2017,01,10,17,35,17.70
2017,01,10,17,36,17.70
2017,01,10,17,37,27.40
2017,01,10,17,38,19.30
2017,01,10,17,39,11.30
2017,01,10,17,40,24.20
2017,01,10,17,41,19.30
2017,01,10,17,42,20.90
2017,01,10,17,43,17.70
2017,01,10,17,44,17.70
2017,01,10,17,45,25.70
2017,01,10,17,46,27.40
2017,01,10,17,47,24.20
2017,01,10,17,48,14.50